When you browse on this site, cookies collect data to enhance your experience and personalize the content and advertising you see.
Visit our Privacy Policy to learn more. By continuing to use the site, you agree to this use of cookies and data.
  • In Latvia
  • List of Countries
  • For 7 days
  • Water Temperature
  • Satellite Maps
  • Weather Map
  • Weather Widgets
  • user-avatar
    Login

    Hourly Weather Ravda

    Today, 24 March, Sunday

    Time Temperature Precipitation Wind Pressure Humidity
    00:00 +8°C° 0 mm 2 mps 767 mmHg 61%
    01:00 +8°C° 0 mm 1 mps 767 mmHg 63%
    02:00 +7°C° 0 mm 1 mps 767 mmHg 66%
    03:00 +7°C° 0 mm 1 mps 767 mmHg 68%
    04:00 +6°C° 0 mm 1 mps 767 mmHg 69%
    05:00 +5°C° 0 mm 2 mps 767 mmHg 71%
    06:00 +6°C° 0 mm 2 mps 767 mmHg 65%
    07:00 +7°C° 0 mm 2 mps 767 mmHg 59%
    08:00 +8°C° 0 mm 2 mps 767 mmHg 52%
    09:00 +9°C° 0 mm 3 mps 767 mmHg 47%
    10:00 +10°C° 0 mm 3 mps 767 mmHg 42%
    11:00 +11°C° 0 mm 4 mps 767 mmHg 36%
    12:00 +12°C° 0 mm 3 mps 766 mmHg 36%
    13:00 +12°C° 0 mm 3 mps 766 mmHg 36%
    14:00 +13°C° 0 mm 3 mps 766 mmHg 36%
    15:00 +12°C° 0 mm 3 mps 766 mmHg 40%
    16:00 +12°C° 0 mm 3 mps 765 mmHg 44%
    17:00 +11°C° 0 mm 3 mps 765 mmHg 49%
    18:00 +10°C° 0 mm 3 mps 765 mmHg 54%
    19:00 +8°C° 0 mm 3 mps 765 mmHg 60%
    20:00 +7°C° 0 mm 2 mps 765 mmHg 66%
    21:00 +7°C° 0 mm 2 mps 765 mmHg 67%
    22:00 +6°C° 0 mm 2 mps 765 mmHg 68%
    23:00 +7°C° 0 mm 1 mps 765 mmHg 69%

    Tomorrow, 25 March, Monday

    Time Temperature Precipitation Wind Pressure Humidity
    00:00 +7°C° 0 mm 1 mps 765 mmHg 69%
    01:00 +7°C° 0 mm 1 mps 765 mmHg 69%
    02:00 +7°C° 0 mm 1 mps 764 mmHg 70%
    03:00 +5°C° 0 mm 2 mps 764 mmHg 69%
    04:00 +5°C° 0 mm 2 mps 763 mmHg 68%
    05:00 +5°C° 0 mm 2 mps 763 mmHg 67%
    06:00 +6°C° 0 mm 2 mps 763 mmHg 63%
    07:00 +7°C° 0 mm 2 mps 763 mmHg 59%
    08:00 +8°C° 0 mm 2 mps 762 mmHg 56%
    09:00 +10°C° 0 mm 2 mps 762 mmHg 50%
    10:00 +13°C° 0 mm 3 mps 761 mmHg 45%
    11:00 +16°C° 0 mm 3 mps 761 mmHg 39%
    12:00 +16°C° 0 mm 3 mps 761 mmHg 39%
    13:00 +17°C° 0 mm 4 mps 760 mmHg 38%
    14:00 +17°C° 0 mm 5 mps 760 mmHg 38%
    15:00 +16°C° 0 mm 5 mps 759 mmHg 42%
    16:00 +15°C° 0 mm 5 mps 759 mmHg 46%
    17:00 +14°C° 0 mm 5 mps 758 mmHg 49%
    18:00 +13°C° 0 mm 5 mps 758 mmHg 55%
    19:00 +11°C° 0 mm 4 mps 758 mmHg 61%
    20:00 +10°C° 0 mm 4 mps 758 mmHg 67%
    21:00 +10°C° 0 mm 3 mps 758 mmHg 69%
    22:00 +9°C° 0 mm 3 mps 758 mmHg 72%
    23:00 +9°C° 0 mm 3 mps 758 mmHg 74%

    Day after tomorrow, 26 March, Tuesday

    Time Temperature Precipitation Wind Pressure Humidity
    00:00 +9°C° 0 mm 2 mps 758 mmHg 75%
    01:00 +8°C° 0 mm 2 mps 758 mmHg 76%
    02:00 +8°C° 0 mm 2 mps 758 mmHg 78%
    03:00 +8°C° 0 mm 2 mps 758 mmHg 78%
    04:00 +7°C° 0 mm 2 mps 758 mmHg 78%
    05:00 +8°C° 0 mm 1 mps 757 mmHg 79%
    06:00 +9°C° 0 mm 1 mps 758 mmHg 74%
    07:00 +10°C° 0 mm 1 mps 758 mmHg 70%
    08:00 +11°C° 0 mm 1 mps 758 mmHg 65%
    09:00 +14°C° 0 mm 1 mps 758 mmHg 58%
    10:00 +16°C° 0 mm 1 mps 758 mmHg 51%
    11:00 +19°C° 0 mm 1 mps 759 mmHg 44%
    12:00 +19°C° 0 mm 1 mps 759 mmHg 43%
    13:00 +19°C° 0 mm 2 mps 759 mmHg 43%
    14:00 +19°C° 0 mm 3 mps 759 mmHg 42%
    15:00 +18°C° 0 mm 3 mps 759 mmHg 47%
    16:00 +17°C° 0 mm 3 mps 759 mmHg 52%
    17:00 +16°C° 0 mm 3 mps 759 mmHg 56%
    18:00 +14°C° 0 mm 4 mps 760 mmHg 62%
    19:00 +12°C° 0 mm 5 mps 761 mmHg 67%
    20:00 +10°C° 0 mm 6 mps 762 mmHg 73%
    21:00 +10°C° 0.1 mm 6 mps 762 mmHg 74%
    22:00 +9°C° 0.1 mm 5 mps 762 mmHg 76%
    23:00 +10°C° 0.1 mm 4 mps 763 mmHg 78%

    27 March, Wednesday

    Time Temperature Precipitation Wind Pressure Humidity
    00:00 +10°C° 0.2 mm 4 mps 763 mmHg 79%
    01:00 +8°C° 0.2 mm 4 mps 763 mmHg 81%
    02:00 +8°C° 0.2 mm 4 mps 763 mmHg 83%
    03:00 +8°C° 0.2 mm 4 mps 764 mmHg 82%
    04:00 +8°C° 0.2 mm 4 mps 764 mmHg 81%
    05:00 +9°C° 0.2 mm 3 mps 764 mmHg 81%
    06:00 +8°C° 0.1 mm 4 mps 764 mmHg 77%
    07:00 +8°C° 0.1 mm 4 mps 765 mmHg 73%
    08:00 +8°C° 0.1 mm 4 mps 766 mmHg 69%
    09:00 +9°C° 0 mm 5 mps 766 mmHg 62%
    10:00 +10°C° 0 mm 5 mps 766 mmHg 56%
    11:00 +12°C° 0 mm 5 mps 767 mmHg 49%
    12:00 +12°C° 0 mm 5 mps 767 mmHg 48%
    13:00 +11°C° 0 mm 6 mps 767 mmHg 46%
    14:00 +11°C° 0 mm 6 mps 767 mmHg 45%
    15:00 +10°C° 0 mm 6 mps 767 mmHg 50%
    16:00 +10°C° 0 mm 6 mps 767 mmHg 54%
    17:00 +9°C° 0 mm 6 mps 767 mmHg 58%
    18:00 +8°C° 0 mm 5 mps 768 mmHg 62%
    19:00 +8°C° 0 mm 5 mps 768 mmHg 65%
    20:00 +7°C° 0 mm 5 mps 769 mmHg 68%
    21:00 +7°C° 0 mm 4 mps 769 mmHg 68%
    22:00 +7°C° 0 mm 4 mps 769 mmHg 69%
    23:00 +6°C° 0 mm 4 mps 769 mmHg 70%

    28 March, Thursday

    Time Temperature Precipitation Wind Pressure Humidity
    00:00 +6°C° 0 mm 4 mps 769 mmHg 69%
    01:00 +6°C° 0 mm 4 mps 770 mmHg 68%
    02:00 +5°C° 0 mm 4 mps 770 mmHg 67%
    03:00 +5°C° 0 mm 5 mps 770 mmHg 64%
    04:00 +5°C° 0 mm 5 mps 770 mmHg 62%
    05:00 +3°C° 0 mm 5 mps 770 mmHg 59%
    06:00 +5°C° 0 mm 5 mps 770 mmHg 57%
    07:00 +5°C° 0 mm 6 mps 770 mmHg 55%
    08:00 +7°C° 0 mm 6 mps 771 mmHg 52%
    09:00 +7°C° 0 mm 6 mps 771 mmHg 50%
    10:00 +8°C° 0 mm 6 mps 771 mmHg 48%
    11:00 +9°C° 0 mm 7 mps 771 mmHg 46%
    12:00 +9°C° 0 mm 7 mps 771 mmHg 46%
    13:00 +9°C° 0 mm 7 mps 770 mmHg 46%
    14:00 +9°C° 0 mm 7 mps 770 mmHg 47%
    15:00 +9°C° 0 mm 7 mps 770 mmHg 48%
    16:00 +7°C° 0 mm 8 mps 770 mmHg 50%
    17:00 +6°C° 0 mm 8 mps 770 mmHg 52%
    18:00 +5°C° 0 mm 7 mps 770 mmHg 53%
    19:00 +4°C° 0 mm 7 mps 771 mmHg 55%
    20:00 +4°C° 0 mm 7 mps 771 mmHg 56%
    21:00 +3°C° 0 mm 7 mps 771 mmHg 57%
    22:00 +3°C° 0 mm 6 mps 771 mmHg 57%
    23:00 +3°C° 0 mm 6 mps 771 mmHg 58%

    29 March, Friday

    Time Temperature Precipitation Wind Pressure Humidity
    00:00 +3°C° 0 mm 6 mps 771 mmHg 59%
    01:00 +2°C° 0 mm 7 mps 771 mmHg 60%
    02:00 +2°C° 0 mm 7 mps 771 mmHg 61%
    03:00 +2°C° 0 mm 7 mps 771 mmHg 61%
    04:00 +2°C° 0 mm 7 mps 771 mmHg 61%
    05:00 0°C° 0 mm 7 mps 771 mmHg 61%
    06:00 +1°C° 0 mm 8 mps 771 mmHg 58%
    07:00 +2°C° 0 mm 8 mps 772 mmHg 56%
    08:00 +4°C° 0 mm 8 mps 772 mmHg 53%
    09:00 +5°C° 0 mm 8 mps 772 mmHg 50%
    10:00 +6°C° 0 mm 8 mps 771 mmHg 46%
    11:00 +7°C° 0 mm 8 mps 771 mmHg 43%
    12:00 +7°C° 0 mm 8 mps 771 mmHg 43%
    13:00 +7°C° 0 mm 9 mps 770 mmHg 43%
    14:00 +8°C° 0 mm 9 mps 770 mmHg 43%
    15:00 +7°C° 0 mm 8 mps 770 mmHg 46%
    16:00 +7°C° 0 mm 8 mps 769 mmHg 48%
    17:00 +6°C° 0 mm 8 mps 769 mmHg 51%
    18:00 +5°C° 0 mm 8 mps 769 mmHg 53%
    19:00 +4°C° 0 mm 7 mps 769 mmHg 56%
    20:00 +3°C° 0 mm 7 mps 770 mmHg 59%
    21:00 +3°C° 0 mm 6 mps 769 mmHg 59%
    22:00 +3°C° 0 mm 6 mps 769 mmHg 60%
    23:00 +2°C° 0 mm 6 mps 769 mmHg 61%
    Show more